Flag for Germany Weather past 2 weeks in Frechen, North Rhine-Westphalia, Germany

Now
54 °F

Fog.


Feels Like: 54 °F
Forecast: 56 / 78 °F
Wind: 1 mph from South

Location: Noervenich

Current Time: Aug 28, 2015 at 7:53:45 AM

Latest Report: Aug 28, 2015 at 7:20 AM


Visibility: 4 mi

Pressure: 30.01 "Hg

Humidity: 100%

Dew point: 54 °F

Location of FrechenLocation

Historic Weather in Frechen — Graph

°F

Frechen temperature yesterday

Maximum temperature yesterday: 73 °F (at 12:20 AM)
Minimum temperature yesterday: 55 °F (at 5:00 PM)
Average temperature yesterday: 63 °F

Past Weeks' High & Low Weather Summary

 TemperatureHumidityPressure
High90 °F (Aug 13, 5:20 PM)100% (Aug 15, 9:20 PM)30.24 "Hg (Aug 15, 9:20 PM)
Low48 °F (Aug 19, 6:20 AM)30% (Aug 23, 3:20 PM)29.53 "Hg (Aug 24, 2:20 PM)
Average65 °F74%29.93 "Hg
* Reported Aug 13 6:20 AM — Aug 28 6:20 AM, Frechen, Weather by CustomWeather, © 2015

Note: Actual official high and low records may vary slightly from our data, if they occured in-between our weather recording intervals... More about our weather records

Advertising

Frechen weather history for previous 24 hours

 ConditionsComfort  
Time TempWeatherWind HumidityBarometerVisibility
6:20 AM
Fri, Aug 28
54 °FFog.No wind100%29.98 "Hg4 mi
5:20 AM55 °FFog.1 mph94%29.98 "HgN/A
4:20 AM55 °FPartly cloudy.No wind94%29.95 "HgN/A
3:20 AM55 °FPartly cloudy.1 mph100%29.95 "HgN/A
2:20 AM55 °FPartly cloudy.1 mph100%29.95 "HgN/A
1:20 AM55 °FPartly cloudy.1 mph100%29.95 "HgN/A
12:20 AM55 °FRain. Overcast.No wind100%29.92 "Hg5 mi
11:20 PM
Thu, Aug 27
55 °FRain. Fog.No wind100%29.89 "Hg3 mi
10:20 PM55 °FRain. Fog.1 mph100%29.89 "Hg3 mi
9:20 PM55 °FRain. Fog.1 mph100%29.89 "Hg3 mi
8:20 PM55 °FRain. Fog.2 mph94%29.86 "Hg3 mi
7:20 PM55 °FRain. Broken clouds.2 mph94%29.89 "Hg4 mi
6:20 PM55 °FLight rain. Broken clouds.1 mph100%29.86 "Hg6 mi
5:20 PM55 °FLight rain. Partly sunny.6 mph94%29.89 "HgN/A
5:00 PM55 °FLight rain. Broken clouds.6 mph94%29.86 "HgN/A
4:20 PM57 °FRain. Broken clouds.5 mph94%29.86 "Hg6 mi
3:49 PM59 °FRain. Partly sunny.2 mph94%29.86 "Hg4 mi
3:20 PM59 °FRain. Partly sunny.5 mph88%29.89 "Hg5 mi
2:20 PM59 °FLight rain. Broken clouds.5 mph88%29.89 "Hg6 mi
1:54 PM59 °FRain. Fog.8 mph88%29.89 "Hg3 mi
1:20 PM63 °FRain. Fog.6 mph83%29.89 "Hg3 mi
12:20 PM64 °FLight rain. Partly sunny.3 mph78%29.89 "HgN/A
11:20 AM64 °FPartly sunny.2 mph83%29.86 "HgN/A
10:20 AM64 °FLight rain. Overcast.5 mph78%29.86 "HgN/A
9:20 AM66 °FLight rain. Overcast.3 mph73%29.86 "HgN/A
8:20 AM68 °FLight rain. Mostly cloudy.9 mph64%29.86 "HgN/A
7:20 AM68 °FLight rain. Overcast.6 mph73%29.83 "HgN/A
Weather by CustomWeather, © 2015

See weather overviewHow to use our weather pages